Regional Weather Roundup
Issued by NWS

Home | Current Version | Previous Version | Graphics & Text | Print | Product List | Glossary On
Versions: 1 2 3 4 5 6 7 8 9 10 11 12 13 14 15 16 17 18 19 20 21 22 23 24 25 26 27 28 29 30 31 32 33 34 35 36 37 38 39 40 41 42 43 44 45 46 47 48 49 50
000
ASUS45 KSLC 260510
RWRUT

UTAH REGIONAL WEATHER ROUNDUP
NATIONAL WEATHER SERVICE SALT LAKE CITY UT
1000 PM MST SUN JAN 25 2015

UTZ001>011-023>025-260600-

NORTHERN UTAH

CITY           SKY/WX    TMP DP  RH WIND       PRES   REMARKS
BRIGHAM CITY   CLEAR     33  29  84 CALM      30.40S
HILL AFB       CLEAR     37  26  62 NE5       30.39R WCI  34
LOGAN          CLEAR     30  28  92 SW3       30.41F FOG
OGDEN          CLEAR     35  29  78 CALM      30.39R
PROVO AIRPORT  CLEAR     30  25  80 E3        30.41S
SALT LAKE CITY CLEAR     35  30  82 CALM      30.41R
VERNAL         MOCLDY    27  20  75 NW3       30.39F
WENDOVER       CLEAR     32  27  80 N3        30.41S
HEBER CITY     CLEAR     30  28  93 CALM      30.39S
WEST JORDAN    CLEAR     34  32  93 SW8       30.42R WCI  27

$$

UTZ012>022-026-027-260600-

SOUTHERN/CENTRAL UTAH

CITY           SKY/WX    TMP DP  RH WIND       PRES   REMARKS
BLANDING       CLEAR     38  24  57 N6        30.37F WCI  33
BRYCE CANYON   CLEAR     27  24  89 W7        30.40S WCI  19
CEDAR CITY     CLEAR     32  27  81 S6        30.37S WCI  26
DELTA          CLEAR     34  31  89 CALM      30.38S
MILFORD        CLEAR     33  27  78 NW10      30.38S WCI  25
MOAB/CYNLANDS  CLEAR     31  23  72 NW3       30.33S
PRICE          CLEAR     33  21  61 N10       30.34F WCI  25
ST GEORGE      CLEAR     54  30  40 NE10      30.28R
KANAB          CLEAR     41  25  52 NW14      30.36R

$$

REGIONAL REPORTS     COLORADO/ARIZONA

CITY           SKY/WX    TMP DP  RH WIND       PRES   REMARKS
CRAIG, CO      PTCLDY    20  17  88 CALM      30.42R
GRAND JUNCTION CLEAR     30  23  75 SE10      30.35F WCI  21
RIFLE          MOCLDY    29  24  82 SE3       30.40S
MONTROSE       PTCLDY    27  20  75 S6        30.39F WCI  20
CORTEZ         CLEAR     37  23  56 W5        30.30R WCI  33
PAGE, AZ       NOT AVBL
GRAND CANYON   CLEAR     29  20  69 CALM      30.35R
KINGMAN        MOCLDY    47  27  45 CALM      30.18R
FLAGSTAFF      PTCLDY    31  20  63 NE3       30.34S

$$

REGIONAL REPORTS    NEVADA/IDAHO/WYOMING

CITY           SKY/WX    TMP DP  RH WIND       PRES   REMARKS
LAS VEGAS, NV  MOCLDY    58  33  39 SW9       30.12R
ELY            CLEAR     29  23  78 MISG      30.41S
ELKO           CLEAR     31  27  85 CALM      30.38R
POCATELLO, ID  FOG       31  31 100 NE8       30.45S VSB 1/8 WCI  23
BURLEY         CLOUDY    32  30  92 NE16      30.40R WCI  21
EVANSTON, WY   PTCLDY    35  29  78 N5        30.43S WCI  31
ROCK SPRINGS   MOCLDY    35  27  72 SW13      30.38R WCI  26
KEMMERER       MOCLDY    32  28  86 NW14      30.41S WCI  22

$$



USA.gov is the U.S. government's official web portal to all federal, state and local government web resources and services.